Location: Dillon
(41.1766°N, 107.0923°W)
Time: 11:19:44
(UTC+00:00)

AO-92 - Pass Details

Date: 30 June 2022
Orbit: 469 x 481 km, 97.4° (Epoch: 09 August)

Event Time Altitude Azimuth Distance (km) Brightness Sun altitude
Exits shadow 06:00:45 21° 266° (W) 1,109 ? -23.6°
Drops below altitude 10° 06:03:32 10° 317° (NW) 1,661 ? -23.7°
Sets 06:05:58 0° 333° (NNW) 2,549 ? -23.9°
